Temperature
16 16 17 16 16 16 16 16 16 16 16 16 16 16 16 16 16 16 16 16 16 16 16 16 16 16 17 17 17 17 17 17 17 17 17 17 17 17 17 17 17 17 17
15 15 16 16 16 16 16 16 16 16 16 16 16 16 15 15 16 16 16 16 16 16 16 16 16 16 16 16 16 16 17 17 17 17 17 17 17 17 17 17 17 16 17
15 14 15 15 15 15 15 15 16 16 16 16 16 16 15 15 15 15 16 16 16 16 16 16 16 16 16 16 16 16 16 16 17 17 17 16 16 17 17 17 17 17 17
14 14 14 15 15 15 15 15 15 15 15 16 16 16 16 15 15 15 15 15 15 15 15 16 16 16 16 16 16 16 16 16 16 17 16 16 16 16 17 16 17 17 17
14 14 14 14 14 14 14 14 14 14 14 15 15 15 15 15 15 15 15 15 15 15 15 15 15 16 16 16 16 16 16 16 16 16 15 15 16 16 17 17 17 17 17
14 14 14 14 14 14 14 14 14 14 14 14 14 14 14 15 15 15 15 15 15 15 15 15 15 15 15 15 15 15 15 15 15 15 15 15 15 16 17 17 17 17 17
13 13 13 14 14 14 14 14 14 14 14 14 14 14 14 14 14 14 14 14 15 15 15 15 15 15 15 15 15 15 15 15 15 15 15 15 15 16 16 17 17 17 17
12 13 13 13 13 14 14 14 14 14 14 14 14 14 14 14 14 14 14 14 14 14 14 15 15 15 15 15 15 15 15 15 15 14 15 15 15 16 16 16 16 17 17
12 12 12 12 12 12 13 13 13 13 13 13 13 14 14 14 14 14 14 14 14 14 14 14 14 14 14 14 15 15 15 15 14 15 14 15 15 16 16 16 16 16 17
11 11 11 12 12 12 12 12 12 12 13 13 13 13 13 13 13 13 13 13 14 14 14 14 14 14 14 14 14 14 14 14 14 14 15 15 15 16 15 15 15 16 16
10 10 11 11 11 12 12 12 12 12 12 13 13 13 13 13 13 13 13 13 13 13 13 14 14 14 14 14 14 14 14 14 14 14 14 14 15 15 15 15 15 15 16
9 9 10 10 11 11 11 11 12 12 12 12 12 12 12 12 12 13 13 13 13 13 13 13 13 13 13 13 13 14 13 13 14 14 14 14 15 15 15 15 15 15 15
8 9 9 10 10 10 10 11 11 11 11 12 12 12 12 12 12 12 12 13 13 13 13 13 13 13 13 13 13 13 13 13 13 13 14 14 15 15 15 15 15 15 15
8 8 9 9 9 10 10 10 10 10 10 11 11 11 11 12 12 12 12 12 12 12 13 13 13 13 13 13 13 13 13 13 13 13 13 14 15 14 14 15 15 15 15
7 8 8 8 8 9 9 9 9 9 9 9 9 9 10 10 10 11 11 11 12 12 12 12 12 12 12 12 12 12 13 13 13 13 13 13 14 14 14 14 15 15 15
6 6 7 7 7 7 7 7 7 6 6 6 6 6 7 7 8 9 9 10 10 11 11 11 11 12 12 12 12 12 12 13 13 13 12 12 13 14 14 14 14 15 15
4 5 5 5 6 5 5 5 4 4 3 3 3 3 3 4 5 5 6 7 8 9 10 10 10 11 11 11 11 11 12 12 12 12 12 12 12 13 13 14 14 14 15
3 3 3 3 4 3 3 3 2 2 1 1 1 1 1 2 2 3 4 4 5 6 7 8 8 9 10 10 10 11 11 11 12 12 12 12 12 12 13 13 14 14 14
2 2 2 2 2 2 2 1 0 -0 -0 -0 -0 -0 0 0 1 1 2 2 3 3 4 5 6 7 8 9 9 10 10 11 11 11 11 12 12 12 12 13 13 14 14
1 1 0 0 0 0 0 -0 -0 -1 -1 -1 -1 -1 -1 -1 -1 -0 -0 1 1 2 2 3 4 5 6 7 8 9 9 10 10 11 11 11 12 12 12 12 13 13 13
-0 -0 -1 -1 -1 -1 -1 -2 -2 -2 -2 -2 -2 -2 -2 -2 -2 -2 -2 -1 -0 0 1 1 2 3 4 5 6 8 9 10 10 10 10 11 11 11 12 12 12 12 12
-2 -2 -2 -2 -2 -3 -3 -3 -4 -4 -4 -4 -3 -3 -3 -3 -3 -3 -3 -3 -2 -2 -1 -0 0 1 2 3 4 6 8 10 10 10 10 10 11 11 11 12 12 12 13
-3 -3 -3 -3 -4 -4 -4 -4 -4 -4 -5 -5 -5 -4 -3 -4 -4 -4 -4 -4 -4 -3 -3 -2 -1 -0 0 1 2 4 6 9 10 11 10 10 10 11 11 11 12 12 12
-4 -4 -4 -4 -5 -5 -5 -6 -6 -6 -6 -6 -6 -6 -5 -5 -5 -5 -5 -5 -5 -4 -4 -3 -2 -1 -0 0 1 2 4 5 7 9 10 10 10 10 10 11 11 12 12
-4 -5 -5 -5 -6 -6 -6 -7 -7 -7 -7 -7 -7 -7 -6 -6 -6 -6 -6 -6 -5 -5 -4 -4 -3 -2 -1 -0 1 1 2 4 5 6 8 9 10 9 10 10 10 11 11
-5 -6 -6 -6 -7 -7 -7 -7 -8 -8 -8 -8 -8 -8 -7 -7 -7 -7 -6 -6 -6 -6 -5 -4 -4 -3 -2 -1 -0 1 1 2 4 5 6 8 9 9 9 9 9 10 11
Wind_Speed
11 7 8 7 7 6 7 7 7 8 8 8 8 7 7 6 6 5 4 3 3 3 3 2 2 2 2 2 2 2 2 2 1 1 3 5 6 6 6 5 4 5 6
12 8 9 9 9 8 8 8 8 8 8 9 9 8 8 8 7 7 7 6 6 5 5 5 5 4 4 4 3 3 3 2 2 2 2 5 6 6 6 5 3 4 5
14 13 13 13 11 10 9 9 9 9 9 10 10 10 10 10 10 9 9 9 8 8 7 7 7 7 7 6 5 4 4 4 3 3 4 6 6 6 6 5 3 4 5
19 19 22 21 16 13 11 11 10 10 10 11 11 11 11 12 12 10 11 10 9 8 8 9 9 9 8 8 7 6 6 6 5 5 7 5 5 6 5 6 6 6 6
21 22 26 28 25 21 17 14 13 13 12 12 12 13 13 13 13 13 12 11 9 8 8 9 9 9 9 9 8 8 8 8 7 9 7 5 5 5 5 6 6 7 7
21 23 27 31 30 29 27 24 21 19 17 16 15 15 15 15 15 14 13 12 10 9 8 8 7 8 8 8 8 8 8 9 10 11 8 7 6 5 6 7 6 7 7
22 24 27 31 31 31 31 29 28 26 24 22 21 19 18 17 16 16 15 13 11 10 9 8 7 6 6 6 7 7 7 8 12 10 9 9 7 4 8 9 8 8 8
24 25 26 29 30 30 31 30 29 29 27 25 25 23 21 18 17 16 15 14 13 11 10 9 8 7 6 5 5 4 4 7 11 11 11 10 6 6 10 11 11 10 9
26 26 26 27 27 26 28 30 29 29 29 27 27 27 24 20 18 16 15 14 13 13 12 11 10 9 8 7 5 4 3 5 11 10 11 10 7 8 10 11 13 12 11
25 26 27 27 26 25 23 26 26 27 28 27 27 28 25 21 19 17 17 17 16 14 13 12 12 11 10 9 7 5 4 7 12 11 10 9 7 9 10 11 14 14 14
23 24 26 26 26 25 22 22 23 23 25 25 24 26 23 19 18 17 18 19 18 16 14 13 12 12 11 12 10 7 8 10 10 10 10 5 6 10 12 12 13 16 16
24 23 24 25 25 24 21 20 19 19 20 21 22 23 20 18 17 18 18 18 18 17 15 11 12 12 13 12 11 10 10 10 10 10 9 5 8 11 13 13 13 16 18
20 21 21 23 23 23 20 18 17 17 17 18 21 23 20 17 16 16 15 15 16 16 13 13 11 9 10 9 9 10 10 9 8 9 8 8 10 12 13 14 14 15 18
20 21 21 23 22 22 20 17 16 16 16 16 18 21 20 15 15 16 13 15 14 12 13 12 9 10 10 11 11 11 11 9 9 8 7 8 11 13 15 15 15 15 17
20 21 21 23 23 22 19 17 16 16 16 16 16 18 20 16 15 16 14 14 14 14 13 12 11 11 10 10 10 11 11 11 11 10 8 9 12 13 15 16 16 17 17
20 21 20 22 23 22 19 18 17 16 16 16 16 18 19 18 17 16 14 14 14 15 15 14 13 12 11 10 10 11 12 12 11 12 11 9 13 14 15 16 17 18 18
19 19 20 21 23 22 21 19 17 17 17 16 16 17 19 19 19 18 14 12 14 17 16 14 14 12 11 11 12 13 12 12 12 12 12 11 11 14 16 16 17 18 19
18 19 19 20 22 22 21 19 17 17 17 16 17 17 19 20 20 18 14 13 17 16 14 12 12 11 11 11 12 12 11 11 13 13 13 12 12 11 13 16 17 19 20
18 19 20 20 21 21 20 19 18 17 17 16 16 17 20 20 21 19 14 15 18 14 12 12 12 12 12 12 12 12 13 13 13 13 14 14 13 13 13 12 16 19 20
19 20 20 19 21 21 18 17 16 16 16 16 16 18 20 20 21 19 15 17 17 13 12 13 14 13 12 12 13 14 14 14 13 14 14 13 13 14 15 14 13 15 21
20 21 21 20 20 18 15 15 15 15 14 14 16 19 20 21 21 18 15 16 15 13 14 15 14 14 12 11 12 13 14 16 17 15 14 14 14 14 14 14 14 13 13
19 20 20 19 19 17 15 14 13 14 13 14 17 19 20 21 20 17 16 14 14 14 15 15 14 11 11 10 9 10 10 13 14 15 14 14 15 13 13 14 14 14 14
18 18 17 19 18 18 19 15 13 12 12 12 14 14 19 21 20 18 18 16 15 13 13 15 14 14 12 12 10 7 8 9 10 11 14 14 14 13 12 12 13 14 15
17 17 17 18 17 18 18 16 17 14 14 16 14 14 19 20 19 19 19 18 16 13 14 14 14 13 13 11 11 9 11 12 10 10 9 11 13 13 12 10 11 12 14
16 16 16 17 17 17 18 17 16 15 14 14 15 17 17 18 19 19 19 18 16 13 15 16 15 14 12 11 10 10 11 11 14 13 14 12 10 11 11 11 9 9 11
15 15 16 17 16 17 17 17 17 17 18 18 18 17 16 14 15 19 21 19 17 14 15 16 15 16 13 13 12 10 10 9 9 10 12 14 13 12 11 10 10 10 9
Wind_Direction
359 13 14 18 14 9 2 357 357 356 353 351 350 349 350 349 349 350 351 350 342 335 328 316 299 289 278 247 198 156 111 80 79 128 173 172 161 155 150 152 185 146 119
356 19 22 15 4 359 354 351 350 348 346 345 343 340 337 334 329 324 325 321 315 304 293 287 281 274 267 255 229 193 169 131 99 101 145 173 169 171 168 174 258 113 137
10 15 18 14 0 354 348 344 341 339 336 334 333 332 329 326 323 317 318 315 309 307 297 286 279 275 271 262 242 219 200 182 160 145 209 202 173 175 180 182 195 155 163
16 19 17 13 5 356 348 341 336 332 329 326 323 322 320 317 316 311 315 312 308 310 308 292 280 272 269 264 251 235 221 204 189 201 219 202 188 159 187 194 199 191 184
23 24 22 20 19 15 6 356 346 338 330 324 319 316 313 311 309 308 312 312 306 305 308 303 286 271 265 260 251 242 232 216 201 225 222 208 206 162 201 204 209 203 197
28 27 26 25 26 26 24 20 13 5 354 343 333 323 315 309 307 308 307 309 303 297 299 300 295 277 267 262 253 246 236 220 215 224 219 216 215 177 219 214 215 213 207
30 29 29 28 28 28 28 26 25 22 17 10 1 349 335 322 313 310 308 307 300 293 293 294 295 288 274 265 257 250 239 220 235 233 225 224 223 200 233 222 215 215 213
33 30 28 27 27 28 28 26 25 22 19 16 12 4 355 342 329 319 313 310 303 295 291 290 289 288 278 269 264 257 246 239 234 234 229 230 212 224 241 230 214 214 213
33 30 27 24 23 23 25 24 22 21 19 16 13 8 1 355 348 341 333 325 314 302 292 285 281 280 275 268 260 249 243 251 253 237 233 232 196 226 248 240 219 214 215
31 28 24 22 20 17 17 19 17 18 15 12 11 7 1 357 356 353 352 349 338 321 304 289 279 274 271 266 257 245 239 247 244 240 235 224 189 232 250 246 228 217 216
27 24 21 18 16 12 11 11 11 12 11 9 8 4 1 357 356 352 353 351 349 342 324 304 288 276 269 251 240 240 244 248 245 246 240 205 204 240 248 249 237 223 217
21 18 17 15 12 9 7 6 5 6 5 6 4 1 358 354 352 349 343 348 346 340 329 320 306 281 261 254 227 216 244 244 251 246 239 184 229 246 249 249 245 231 222
19 17 14 13 10 8 4 2 1 359 358 358 0 359 355 352 349 349 345 343 341 338 337 327 311 291 277 265 262 248 249 254 250 250 240 196 230 244 249 249 246 239 228
17 14 10 9 7 5 1 357 356 355 354 353 354 356 355 350 347 346 340 338 336 335 332 325 312 299 288 274 261 257 255 251 252 252 246 209 235 243 247 249 246 243 232
14 10 7 4 4 0 357 354 352 351 350 348 350 353 354 348 344 341 335 335 333 332 327 321 311 304 291 280 270 262 258 255 254 251 245 217 233 242 246 247 246 245 238
11 6 3 1 0 357 355 351 348 347 346 346 348 349 351 348 343 338 332 332 332 331 326 316 309 303 292 280 271 265 261 260 256 253 252 234 225 236 244 246 245 243 242
7 3 2 357 356 356 353 350 346 345 345 344 345 345 349 347 342 337 330 328 332 328 322 317 311 303 294 286 274 265 262 260 259 257 254 253 245 229 233 242 245 243 241
5 2 360 358 354 354 351 347 345 343 344 342 343 343 346 344 342 336 330 328 331 327 323 321 315 308 298 289 281 273 265 257 255 254 253 249 250 251 237 229 238 242 241
5 1 358 357 354 352 349 346 344 342 343 341 342 343 343 342 342 336 330 330 330 327 326 324 322 316 304 295 285 276 267 261 257 253 251 250 247 247 251 237 227 236 240
4 0 357 356 355 352 349 344 343 341 342 341 342 342 341 341 341 337 333 333 333 328 328 326 324 319 306 295 286 277 268 262 257 254 254 251 246 244 245 250 244 235 231
1 359 356 354 353 353 350 345 342 339 339 339 340 339 339 339 339 338 337 335 333 329 325 322 325 321 317 310 293 279 265 256 252 251 250 250 246 244 245 245 246 247 237
358 356 352 352 350 351 347 340 337 333 333 335 335 334 337 337 337 336 337 334 332 328 324 324 324 319 316 317 304 293 272 260 245 242 244 244 246 245 243 243 244 242 244
357 355 350 349 347 348 346 341 339 337 336 339 338 335 334 334 334 334 334 333 330 329 322 322 319 316 314 311 300 286 278 267 273 244 238 240 241 242 242 243 243 242 242
355 352 349 347 346 348 347 347 344 342 340 337 336 331 331 332 332 334 333 331 329 326 322 320 318 312 309 306 305 288 282 284 279 271 251 240 239 240 240 241 243 242 242
353 351 348 346 347 349 348 348 345 342 338 334 335 333 334 332 332 333 333 330 327 325 323 320 316 311 307 301 300 298 292 283 267 263 264 259 246 240 241 241 241 242 242
351 351 348 346 347 348 348 347 345 343 340 337 338 336 335 332 331 332 332 329 326 325 323 320 316 312 307 301 297 293 291 285 280 270 262 260 260 255 246 245 245 243 241
Height
1567 1564 1561 1560 1558 1557 1556 1554 1553 1552 1551 1550 1550 1549 1548 1547 1547 1546 1545 1544 1543 1543 1542 1541 1541 1540 1540 1540 1539 1538 1538 1537 1537 1536 1536 1536 1536 1536 1536 1536 1537 1538 1537
1569 1567 1564 1562 1560 1558 1557 1555 1554 1553 1551 1550 1549 1548 1548 1547 1546 1545 1544 1544 1543 1542 1541 1541 1540 1540 1539 1539 1538 1538 1537 1537 1536 1536 1536 1536 1536 1536 1536 1536 1537 1538 1538
1570 1568 1566 1563 1561 1559 1558 1556 1554 1553 1551 1550 1549 1548 1547 1546 1545 1544 1543 1543 1542 1541 1540 1540 1539 1538 1538 1537 1537 1537 1536 1536 1536 1536 1536 1536 1536 1536 1536 1537 1537 1538 1538
1571 1569 1566 1564 1562 1560 1559 1557 1555 1553 1552 1550 1549 1547 1546 1545 1544 1543 1542 1541 1540 1539 1539 1538 1537 1537 1536 1536 1536 1535 1535 1535 1535 1535 1536 1537 1536 1536 1536 1536 1537 1537 1538
1571 1569 1566 1564 1563 1561 1559 1557 1555 1554 1552 1550 1548 1547 1545 1544 1543 1542 1540 1540 1539 1538 1537 1536 1535 1535 1534 1534 1534 1534 1534 1534 1533 1534 1536 1535 1536 1535 1535 1536 1536 1537 1538
1572 1569 1567 1565 1563 1561 1559 1557 1555 1553 1551 1549 1548 1546 1544 1543 1541 1540 1539 1538 1537 1536 1535 1534 1533 1533 1532 1532 1532 1532 1532 1532 1532 1533 1534 1534 1535 1535 1535 1535 1536 1536 1537
1573 1570 1568 1565 1563 1561 1558 1556 1554 1552 1550 1548 1546 1544 1543 1541 1540 1538 1537 1536 1535 1534 1533 1532 1531 1531 1530 1530 1529 1529 1529 1529 1529 1531 1531 1532 1533 1533 1534 1534 1535 1536 1536
1574 1571 1569 1566 1563 1561 1558 1556 1554 1552 1550 1548 1546 1544 1542 1540 1538 1536 1535 1533 1532 1531 1530 1529 1529 1528 1528 1527 1527 1526 1526 1526 1527 1528 1529 1530 1530 1531 1533 1534 1534 1535 1535
1576 1572 1569 1567 1564 1562 1559 1557 1554 1552 1549 1547 1545 1543 1540 1538 1536 1535 1533 1531 1529 1528 1527 1526 1526 1525 1525 1524 1524 1524 1523 1523 1524 1525 1526 1527 1527 1529 1530 1532 1533 1533 1534
1577 1574 1571 1569 1566 1563 1560 1558 1555 1552 1549 1547 1544 1541 1539 1537 1535 1533 1530 1529 1527 1525 1524 1523 1522 1522 1521 1521 1521 1521 1520 1520 1521 1522 1522 1523 1524 1526 1528 1529 1531 1532 1533
1579 1576 1573 1570 1567 1565 1562 1559 1556 1553 1549 1546 1543 1540 1538 1535 1533 1530 1528 1526 1524 1523 1521 1520 1519 1518 1518 1517 1516 1516 1517 1518 1519 1518 1518 1519 1519 1522 1524 1526 1527 1529 1530
1581 1578 1575 1572 1569 1566 1562 1559 1555 1552 1549 1545 1542 1539 1536 1534 1531 1528 1526 1524 1522 1520 1519 1517 1516 1515 1514 1514 1514 1512 1513 1514 1514 1514 1514 1514 1515 1517 1519 1521 1523 1525 1528
1585 1581 1577 1574 1570 1566 1563 1559 1555 1551 1548 1544 1541 1537 1534 1532 1529 1526 1524 1521 1519 1517 1516 1514 1513 1512 1511 1510 1510 1510 1510 1510 1510 1510 1510 1509 1511 1513 1515 1517 1519 1521 1524
1586 1582 1579 1575 1571 1567 1563 1559 1554 1550 1546 1542 1539 1535 1531 1528 1525 1523 1520 1518 1516 1514 1512 1511 1509 1509 1507 1506 1506 1505 1505 1505 1505 1505 1505 1504 1506 1507 1509 1512 1514 1516 1519
1587 1583 1579 1575 1570 1566 1562 1557 1553 1549 1544 1540 1536 1532 1528 1524 1521 1518 1516 1513 1511 1509 1508 1506 1505 1504 1503 1502 1502 1501 1501 1501 1501 1501 1500 1499 1501 1502 1504 1506 1508 1511 1514
1588 1583 1579 1575 1570 1565 1560 1555 1551 1547 1542 1538 1534 1530 1526 1522 1517 1514 1511 1508 1506 1504 1502 1501 1500 1499 1498 1498 1497 1496 1496 1496 1496 1496 1496 1496 1495 1497 1498 1500 1502 1505 1508
1588 1584 1579 1574 1568 1563 1558 1553 1549 1544 1540 1536 1531 1527 1523 1519 1514 1510 1507 1503 1500 1497 1496 1495 1494 1493 1492 1492 1491 1491 1491 1491 1491 1491 1491 1491 1491 1491 1492 1494 1496 1499 1502
1589 1583 1578 1572 1567 1561 1556 1551 1546 1542 1538 1533 1529 1525 1520 1515 1511 1507 1503 1500 1496 1492 1490 1488 1487 1486 1486 1485 1485 1485 1485 1484 1484 1485 1485 1485 1486 1486 1487 1488 1490 1492 1495
1589 1583 1577 1571 1565 1559 1554 1549 1544 1540 1535 1531 1526 1522 1517 1512 1508 1504 1500 1496 1492 1488 1486 1483 1481 1479 1478 1478 1478 1477 1478 1478 1478 1478 1479 1479 1479 1480 1481 1482 1483 1485 1488
1588 1583 1576 1570 1564 1557 1552 1546 1541 1537 1532 1528 1524 1519 1514 1509 1504 1500 1496 1492 1489 1485 1481 1478 1476 1474 1472 1471 1470 1470 1470 1470 1470 1471 1472 1472 1473 1473 1475 1476 1477 1479 1481
1587 1581 1575 1569 1562 1556 1550 1544 1538 1533 1529 1525 1520 1516 1511 1506 1501 1497 1493 1488 1485 1481 1478 1475 1471 1469 1467 1466 1465 1463 1462 1463 1462 1463 1464 1465 1466 1467 1468 1469 1471 1472 1474
1587 1581 1574 1568 1562 1555 1549 1544 1538 1533 1527 1522 1517 1513 1508 1503 1498 1494 1490 1486 1482 1478 1474 1471 1468 1465 1463 1462 1461 1459 1457 1456 1455 1455 1456 1458 1459 1461 1462 1463 1464 1466 1468
1586 1579 1573 1567 1560 1554 1548 1542 1536 1530 1525 1520 1514 1509 1505 1500 1495 1491 1487 1483 1479 1475 1471 1468 1465 1463 1460 1458 1458 1458 1455 1450 1450 1449 1449 1450 1452 1454 1455 1456 1457 1459 1461
1584 1577 1571 1565 1559 1552 1546 1539 1534 1528 1523 1518 1512 1507 1502 1497 1493 1489 1484 1480 1476 1472 1468 1464 1462 1460 1457 1454 1453 1452 1451 1449 1448 1444 1444 1444 1445 1447 1448 1449 1451 1452 1454
1583 1576 1569 1563 1557 1551 1544 1538 1533 1528 1522 1516 1511 1505 1499 1494 1490 1486 1481 1477 1472 1468 1464 1461 1458 1455 1453 1451 1449 1447 1445 1443 1443 1442 1440 1440 1440 1441 1442 1443 1444 1446 1447
1581 1575 1568 1561 1555 1549 1543 1537 1532 1526 1520 1514 1508 1502 1496 1491 1487 1483 1478 1473 1469 1465 1460 1456 1453 1451 1449 1446 1444 1442 1440 1439 1438 1437 1435 1435 1435 1436 1437 1437 1438 1439 1441